Location: Cactus School
(34.5700°N, 118.0931°W)
Time: 02:47:17
(UTC-07:00)

Courier 1B - Pass Details

Date: 30 April 2024
Orbit: 962 x 1208 km, 28.3° (Epoch: 23 May)

Event Time Altitude Azimuth Distance (km) Brightness Sun altitude
Exits shadow 03:23:59 19° 149° (SSE) 2,385 9.3 -28.3°
Drops below altitude 10° 03:26:07 10° 138° (SE) 2,966 10.0 -28.0°
Sets 03:29:04 0° 129° (SE) 3,882 10.7 -27.6°
